TimeCST,TemperatureF,Dew PointF,Humidity,Sea Level PressureIn,VisibilityMPH,Wind Direction,Wind SpeedMPH,Gust SpeedMPH,PrecipitationIn,Events,Conditions,WindDirDegrees,DateUTC
12:53 AM,61.0,57.0,87,29.92,10.0,East,10.4,-,N/A,,Overcast,80,2013-02-07 06:53:00
1:53 AM,59.0,55.9,90,29.92,10.0,NE,5.8,-,N/A,,Partly Cloudy,40,2013-02-07 07:53:00
2:13 AM,59.0,55.4,88,29.90,10.0,North,4.6,-,N/A,,Mostly Cloudy,360,2013-02-07 08:13:00
2:38 AM,59.0,55.4,88,29.89,10.0,NNE,5.8,-,N/A,,Overcast,30,2013-02-07 08:38:00
2:53 AM,59.0,57.0,93,29.91,10.0,ENE,4.6,-,N/A,,Overcast,60,2013-02-07 08:53:00
3:53 AM,59.0,57.0,93,29.90,10.0,NE,6.9,-,N/A,,Overcast,50,2013-02-07 09:53:00
4:53 AM,59.0,57.0,93,29.93,10.0,NNE,4.6,-,N/A,,Overcast,20,2013-02-07 10:53:00
5:53 AM,59.0,57.0,93,29.95,10.0,Calm,Calm,-,N/A,,Overcast,0,2013-02-07 11:53:00
6:53 AM,59.0,55.9,90,29.96,10.0,Calm,Calm,-,N/A,,Overcast,0,2013-02-07 12:53:00
7:53 AM,59.0,55.9,90,29.98,8.0,Calm,Calm,-,N/A,,Overcast,0,2013-02-07 13:53:00
8:53 AM,59.0,57.0,93,30.00,3.0,Calm,Calm,-,N/A,,Overcast,0,2013-02-07 14:53:00
9:53 AM,60.1,57.9,93,30.01,3.0,NW,3.5,-,N/A,,Overcast,310,2013-02-07 15:53:00
10:09 AM,60.8,57.2,88,29.98,3.0,NNW,5.8,-,N/A,,Overcast,340,2013-02-07 16:09:00
10:53 AM,62.1,57.9,86,30.00,6.0,North,4.6,-,N/A,,Overcast,350,2013-02-07 16:53:00
11:53 AM,63.0,57.9,84,29.99,7.0,North,3.5,-,N/A,,Overcast,10,2013-02-07 17:53:00
12:53 PM,64.9,59.0,81,29.98,7.0,Calm,Calm,-,N/A,,Overcast,0,2013-02-07 18:53:00
1:02 PM,64.4,59.0,83,29.95,8.0,Calm,Calm,-,N/A,,Overcast,0,2013-02-07 19:02:00
1:53 PM,68.0,60.1,76,29.96,10.0,NNE,4.6,-,N/A,,Overcast,20,2013-02-07 19:53:00
2:53 PM,69.1,60.1,73,29.95,10.0,Calm,Calm,-,N/A,,Overcast,0,2013-02-07 20:53:00
3:53 PM,69.1,59.0,70,29.94,10.0,Calm,Calm,-,N/A,,Mostly Cloudy,0,2013-02-07 21:53:00
4:53 PM,69.1,60.1,73,29.94,10.0,SSE,3.5,-,N/A,,Overcast,160,2013-02-07 22:53:00
5:22 PM,68.0,60.8,78,29.92,9.0,West,5.8,-,N/A,,Overcast,260,2013-02-07 23:22:00
5:53 PM,66.9,60.1,79,29.96,8.0,West,3.5,-,N/A,,Overcast,270,2013-02-07 23:53:00
6:53 PM,64.9,60.1,84,29.96,9.0,West,3.5,-,N/A,,Overcast,280,2013-02-08 00:53:00
7:20 PM,64.4,60.8,88,29.94,9.0,SW,5.8,-,N/A,,Overcast,220,2013-02-08 01:20:00
7:53 PM,64.9,61.0,87,29.98,8.0,WSW,3.5,-,N/A,,Overcast,250,2013-02-08 01:53:00
8:53 PM,64.0,60.1,87,29.99,9.0,Calm,Calm,-,N/A,,Overcast,0,2013-02-08 02:53:00
9:53 PM,61.0,59.0,93,29.99,7.0,South,4.6,-,N/A,,Scattered Clouds,170,2013-02-08 03:53:00
10:27 PM,60.8,59.0,94,29.96,7.0,South,4.6,-,N/A,,Scattered Clouds,190,2013-02-08 04:27:00
10:35 PM,60.8,60.8,100,29.97,5.0,SSW,3.5,-,N/A,,Mostly Cloudy,200,2013-02-08 04:35:00
10:44 PM,60.8,60.8,100,29.97,1.8,South,5.8,-,N/A,,Overcast,190,2013-02-08 04:44:00
10:53 PM,61.0,59.0,93,29.99,0.8,SSW,5.8,-,N/A,,Mist,200,2013-02-08 04:53:00
11:01 PM,60.8,59.0,94,29.97,1.0,SSW,6.9,-,N/A,,Mist,200,2013-02-08 05:01:00
11:38 PM,60.8,59.0,94,29.97,2.5,South,4.6,-,N/A,,Overcast,190,2013-02-08 05:38:00
11:53 PM,60.1,59.0,96,29.99,1.5,SSW,6.9,-,N/A,,Overcast,210,2013-02-08 05:53:00